Location: Gisborne
(38.6530°S, 178.0040°E)
Time: 05:29:07
(UTC+13:00)

Cosmos 1666 Rocket - Pass Details

Date: 24 January 2019
Orbit: 605 x 632 km, 82.5° (Epoch: 17 October)

Event Time Altitude Azimuth Distance (km) Brightness Sun altitude
Rises 21:00:24 0° 185° (S) 2,963 7.6 -6.1°
Reaches altitude 10° 21:02:41 10° 182° (S) 2,044 6.7 -6.5°
Maximum altitude 21:07:12 67° 99° (E) 692 3.6 -7.3°
Drops below altitude 10° 21:11:38 10° 15° (NNE) 2,001 5.7 -8.0°
Enters shadow 21:13:32 - 13° (NNE) 2,770 6.5 -8.3°
